[[{"header":{"parameterUnit":"m.s-1","parameterCategory":1,"la1":30.2991,"la2":30.254,"lo1":-89.0895,"lo2":-89.0444,"dy":0.0017,"dx":0.0017,"nx":28,"ny":28,"refTime":"2025-06-07T03:00:00:Z","depth":0,"parameterNumber":2,"parameterNumberName":"U-component_of_WINDS"},"data":[0,0,0,0,0,0,0,0,0,0,0,0,0,0,0,0,0,0,0,0,0,0,0,0,0,0,0,0,0,0,0,0,0,0,0,0,0,0,0,0,0,0,0,0,0,0,0,0,0,0,0,0,0,0,0,0,0,0,4.1118,4.1118,0,4.1157,4.1157,4.1158,4.1127,4.1125,4.1124,4.1123,4.1165,4.1167,4.117,0,0,0,0,0,0,0,0,0,0,0,0,0,4.1018,4.102,4.1118,4.1118,4.1119,4.1157,4.1157,4.1158,4.1127,4.1125,4.1124,4.1122,4.1164,4.1167,4.117,0,0,0,0,0,0,0,0,0,0,0,0,0,4.106,4.102,4.1118,4.1108,4.1107,4.1157,4.1157,4.1158,4.1127,4.1125,4.1123,4.1121,4.1163,4.1167,4.117,4.1233,0,0,4.1181,4.1183,0,0,0,0,0,0,0,0,4.1057,4.1063,4.1109,4.1108,4.1108,4.1135,4.1138,4.1183,4.1128,4.112,4.1123,4.112,4.1157,4.1161,4.1173,4.1235,4.1236,4.1182,4.1184,4.1185,4.1186,0,0,0,0,0,0,0,4.1054,4.1061,4.1133,4.1109,4.1109,4.1102,4.1106,4.1146,4.1149,4.112,4.1118,4.1123,4.1156,4.1169,4.1173,4.1237,4.1182,4.1185,4.1187,4.1188,4.1353,4.1355,0,0,0,0,0,0,4.1052,4.1059,4.1132,4.1134,4.1077,4.1105,4.111,4.1128,4.1149,4.115,4.1125,4.1121,4.1164,4.1169,4.1175,4.1249,4.1185,4.1189,4.1191,4.1351,4.1353,4.1356,0,0,0,0,0,0,4.105,4.1059,4.113,4.1096,4.1105,4.1109,4.1131,4.113,4.1143,4.1152,4.1152,4.1137,4.1163,4.117,4.1218,4.125,4.119,4.1194,4.1348,4.1351,4.1355,4.1399,0,0,0,0,0,0,4.1047,4.1058,4.1081,4.1097,4.1107,4.1173,4.1132,4.1132,4.1149,4.1145,4.1164,4.1165,4.1162,4.1213,4.1222,4.1254,4.1196,4.1345,4.135,4.1354,4.1394,4.1403,4.1411,0,0,0,0,0,4.1044,4.1093,4.1083,4.1092,4.1136,4.1175,4.118,4.1175,4.1152,4.1175,4.1181,4.1165,4.1245,4.1219,4.1228,4.1262,4.1343,4.1348,4.1353,4.1391,4.1401,4.141,0,0,0,0,0,0,4.1081,4.1095,4.1084,4.1139,4.1156,4.1169,4.1199,4.1186,4.1211,4.1206,4.1199,4.1204,4.1255,4.1263,4.1233,4.1324,4.1291,4.1298,4.1316,4.1326,4.1334,4.1331,4.1199,0,0,0,0,0,4.1096,4.1126,4.1136,4.1184,4.1193,4.1195,4.1211,4.1206,4.1223,4.1231,4.124,4.1258,4.1288,4.1307,4.1335,4.1396,4.14,4.1424,4.1432,4.1438,4.1445,4.1478,4.1489,4.1372,4.1372,4.1372,0,0,4.1127,4.1137,4.1157,4.1192,4.1204,4.1236,4.1201,4.1236,4.126,4.1236,4.1282,4.129,4.131,4.1365,4.139,4.1374,4.1478,4.1445,4.145,4.1453,4.1484,4.1495,4.1505,4.1376,4.1375,4.1374,0,0,4.1199,4.121,4.1251,4.1264,4.1283,4.1284,4.1294,4.131,4.1314,4.136,4.1343,4.1372,4.1423,4.1438,4.1452,4.1531,4.1517,4.154,4.1583,4.1615,4.1624,4.1632,4.1661,4.1671,4.1547,4.1547,4.1547,0,4.1234,4.1281,4.1274,4.131,4.1326,4.1306,4.1348,4.1361,4.1389,4.1401,4.1382,4.1446,4.1458,4.1517,4.1536,4.1548,4.156,4.1538,4.1623,4.1631,4.1639,4.1666,4.1677,4.1549,4.1549,4.1549,4.1549,0,4.1325,4.1357,4.1388,4.1415,4.1435,4.1474,4.1473,4.1494,4.1487,4.149,4.1538,4.1552,4.1582,4.1596,4.1589,4.1654,4.1643,4.1624,4.1591,4.1653,4.1678,4.1689,4.1553,4.1552,4.1551,4.1551,0,0,4.1421,4.1443,4.1455,4.1467,4.1487,4.1513,4.1551,4.158,4.1599,4.1619,4.1651,4.1695,4.1678,4.1694,4.1689,4.1718,4.178,4.1696,4.1696,4.1711,4.1852,4.1867,4.1879,4.1771,4.1773,4.1774,4.1851,0,4.1495,4.1561,4.1556,4.1619,4.165,4.1631,4.1664,4.1681,4.1685,4.1712,4.1717,4.1748,4.1723,4.1733,4.176,4.1767,4.1808,4.1761,4.1802,4.1803,4.1797,4.1892,4.1907,4.1979,4.1861,4.1862,4.1864,0,4.1589,4.1612,4.1678,4.1694,4.1706,4.1737,4.1763,4.1789,4.1808,4.1809,4.1827,4.1818,4.1858,4.1823,4.1879,4.1847,4.1863,4.1869,4.1872,4.1876,4.1837,4.1899,4.2001,4.2012,4.1879,4.1878,4.1877,0,4.1653,4.1701,4.1746,4.1757,4.1777,4.1799,4.1808,4.1824,4.1842,4.1866,4.1877,4.1905,4.1921,4.1943,4.1942,4.1917,4.1999,4.1964,4.2001,4.2001,4.2019,4.2018,4.2127,4.203,4.2029,4.2029,4.2029,0,4.1736,4.1777,4.1776,4.1804,4.185,4.1844,4.189,4.1897,4.1911,4.1941,4.1927,4.1955,4.1952,4.1981,4.198,4.2026,4.2033,4.2036,4.2035,4.2037,4.2037,4.2048,4.2043,4.2032,4.2031,4.2031,4.203,0,4.1816,4.1816,4.1865,4.1879,4.1884,4.1917,4.193,4.1957,4.196,4.1998,4.2006,4.2011,4.2045,4.2045,4.2084,4.2083,4.214,4.2134,4.2134,4.2132,4.217,4.2166,4.2289,4.2305,4.2197,4.2198,4.2199,0,4.1869,4.19,4.1918,4.1936,4.1947,4.1977,4.1995,4.199,4.201,4.2034,4.2058,4.209,4.2115,4.217,4.2177,4.2207,4.2201,4.2242,4.2205,4.2207,4.2202,4.22,4.2204,4.2249,4.225,4.2251,4.2252,0,4.1963,4.1961,4.1988,4.2015,4.2036,4.2057,4.2077,4.2093,4.2091,4.2114,4.2147,4.2167,4.2206,4.2238,4.2267,4.2277,4.2265,4.2264,4.2274,4.2276,4.2275,4.2277,4.2153,4.2261,4.226,4.2259,4.2259,4.2259,4.2031,4.2058,4.2075,4.2105,4.2119,4.2137,4.2163,4.217,4.2197,4.2228,4.2224,4.2261,4.228,4.2317,4.233,4.2359,4.2345,4.236,4.2364,4.2368,4.2372,4.227,4.2365,4.2364,4.2364,4.2364,4.2364,0,4.2124,4.2134,4.2162,4.2189,4.2213,4.2199,4.222,4.2241,4.2274,4.2291,4.2316,4.2355,4.2386,4.2396,4.2427,4.2449,4.2444,4.2457,4.2455,4.2458,4.2382,4.2371,4.246,4.246,4.246,4.246,4.246,4.246,4.2176,4.2221,4.2222,4.2274,4.2284,4.232,4.2333,4.235,4.2364,4.2408,4.2434,4.244,4.2455,4.2486,4.2514,4.2516,4.2528,4.2544,4.2544,4.2473,4.2463,4.2454,4.2443,4.2546,4.2547,4.2617,4.2618,4.2618]},{"header":{"parameterUnit":"m.s-1","parameterCategory":1,"la1":30.2991,"la2":30.254,"lo1":-89.0895,"lo2":-89.0444,"dy":0.0017,"dx":0.0017,"nx":28,"ny":28,"refTime":"2025-06-07T03:00:00:Z","depth":0,"parameterNumber":3,"parameterNumberName":"V-component_of_WINDS"},"data":[0,0,0,0,0,0,0,0,0,0,0,0,0,0,0,0,0,0,0,0,0,0,0,0,0,0,0,0,0,0,0,0,0,0,0,0,0,0,0,0,0,0,0,0,0,0,0,0,0,0,0,0,0,0,0,0,0,0,0.9677,0.9677,0,0.967,0.967,0.967,0.9661,0.9661,0.9661,0.9661,0.9653,0.9653,0.9653,0,0,0,0,0,0,0,0,0,0,0,0,0,0.9683,0.9683,0.9677,0.9677,0.9677,0.967,0.967,0.967,0.9661,0.9661,0.9661,0.9661,0.9653,0.9653,0.9653,0,0,0,0,0,0,0,0,0,0,0,0,0,0.9679,0.9683,0.9677,0.9672,0.9671,0.967,0.967,0.967,0.9661,0.9661,0.9661,0.9661,0.9653,0.9653,0.9653,0.9657,0,0,0.9653,0.9653,0,0,0,0,0,0,0,0,0.9679,0.9678,0.9673,0.9672,0.9672,0.9666,0.9669,0.9665,0.9661,0.9665,0.9661,0.9661,0.9658,0.9657,0.9656,0.9656,0.9656,0.9653,0.9653,0.9653,0.9653,0,0,0,0,0,0,0,0.9679,0.9679,0.9674,0.9673,0.9672,0.967,0.9669,0.9668,0.9663,0.9665,0.9664,0.9663,0.9658,0.9657,0.9656,0.9656,0.9653,0.9653,0.9653,0.9653,0.9657,0.9657,0,0,0,0,0,0,0.968,0.9679,0.9675,0.9674,0.9675,0.967,0.9669,0.9668,0.9663,0.9662,0.9664,0.9663,0.9657,0.9656,0.9656,0.9659,0.9653,0.9653,0.9653,0.9657,0.9657,0.9657,0,0,0,0,0,0,0.9681,0.968,0.9675,0.9676,0.9676,0.967,0.9669,0.9668,0.9667,0.9662,0.9661,0.9664,0.9657,0.9656,0.9656,0.9659,0.9653,0.9652,0.9657,0.9657,0.9657,0.9665,0,0,0,0,0,0,0.9681,0.968,0.9681,0.9677,0.9676,0.9676,0.9669,0.9668,0.9667,0.9666,0.9662,0.9661,0.9656,0.9657,0.9656,0.9658,0.9652,0.9657,0.9657,0.9657,0.9665,0.9666,0.9667,0,0,0,0,0,0.9681,0.9684,0.9682,0.9681,0.9677,0.9676,0.9675,0.967,0.9667,0.9668,0.9665,0.9661,0.9658,0.9657,0.9656,0.9658,0.9656,0.9657,0.9657,0.9664,0.9666,0.9667,0,0,0,0,0,0,0.9689,0.9683,0.9681,0.9682,0.9679,0.9674,0.9676,0.9672,0.967,0.9669,0.9663,0.9662,0.9663,0.9661,0.9659,0.9661,0.9657,0.9657,0.9662,0.9663,0.9664,0.9665,0.9652,0,0,0,0,0,0.9692,0.9691,0.9686,0.9688,0.9686,0.9681,0.9681,0.9677,0.9674,0.9673,0.9669,0.9666,0.9665,0.9664,0.9663,0.9665,0.9663,0.9666,0.9667,0.9667,0.9668,0.9668,0.9669,0.9659,0.9659,0.9659,0,0,0.9696,0.9692,0.9692,0.9689,0.9687,0.9686,0.968,0.968,0.9679,0.9673,0.9673,0.967,0.9666,0.9667,0.9668,0.9665,0.967,0.9668,0.9669,0.9668,0.9668,0.9669,0.967,0.9659,0.9659,0.9659,0,0,0.9703,0.9701,0.9702,0.9699,0.9696,0.9692,0.9692,0.9688,0.9686,0.9685,0.968,0.9679,0.9677,0.9675,0.9673,0.9679,0.9675,0.9679,0.9684,0.9684,0.9685,0.9685,0.9687,0.9688,0.9679,0.9679,0.9679,0,0.9709,0.9708,0.9703,0.9703,0.9701,0.9695,0.9696,0.9694,0.969,0.9689,0.9687,0.9683,0.9681,0.9681,0.9682,0.9681,0.9681,0.9679,0.9685,0.9686,0.9686,0.9688,0.9688,0.968,0.968,0.968,0.968,0,0.9715,0.9714,0.9715,0.9711,0.971,0.9711,0.9705,0.9705,0.9701,0.9698,0.9698,0.9694,0.9692,0.9691,0.9688,0.9691,0.9689,0.9686,0.9682,0.9688,0.9689,0.969,0.968,0.968,0.968,0.968,0,0,0.9727,0.972,0.9721,0.9719,0.9714,0.9713,0.9713,0.9711,0.971,0.9708,0.9707,0.9705,0.9702,0.97,0.9697,0.9697,0.9702,0.9694,0.9694,0.9695,0.9704,0.9706,0.9706,0.9699,0.9699,0.9699,0.9704,0,0.9733,0.9732,0.9728,0.9729,0.9728,0.9722,0.9722,0.9719,0.9716,0.9714,0.9711,0.971,0.9706,0.9705,0.9705,0.9701,0.9703,0.9701,0.9698,0.9698,0.9699,0.9707,0.971,0.9714,0.9704,0.9704,0.9704,0,0.9739,0.9737,0.9738,0.9733,0.9732,0.9733,0.973,0.9729,0.9725,0.9723,0.9721,0.9717,0.9716,0.9712,0.9711,0.9709,0.9708,0.9706,0.9706,0.9705,0.9701,0.9706,0.9715,0.9716,0.9705,0.9705,0.9705,0,0.9748,0.9745,0.9745,0.9743,0.9738,0.9738,0.9735,0.9732,0.973,0.9728,0.9727,0.9724,0.9723,0.9721,0.9716,0.9714,0.9715,0.9711,0.9713,0.9713,0.9713,0.9713,0.9722,0.9713,0.9713,0.9713,0.9713,0,0.9754,0.9755,0.9748,0.9748,0.9748,0.9743,0.9744,0.9741,0.9737,0.9736,0.9732,0.9731,0.9725,0.9723,0.972,0.9719,0.9718,0.9716,0.9715,0.9716,0.9716,0.9715,0.9714,0.9713,0.9713,0.9713,0.9713,0,0.9763,0.9759,0.9758,0.9753,0.9752,0.9752,0.9748,0.9747,0.9744,0.9743,0.9742,0.9737,0.9735,0.973,0.9726,0.9724,0.9724,0.9722,0.9725,0.9724,0.9726,0.9726,0.9734,0.9734,0.9726,0.9726,0.9726,0,0.9767,0.9768,0.9763,0.9762,0.9759,0.9758,0.9757,0.9751,0.975,0.9746,0.9746,0.9743,0.9741,0.9738,0.9734,0.9731,0.9729,0.9732,0.9728,0.973,0.9728,0.9728,0.9728,0.9732,0.9733,0.9733,0.9733,0,0.9775,0.9773,0.9771,0.9769,0.9767,0.9765,0.9762,0.9762,0.9756,0.9754,0.9752,0.975,0.9747,0.9744,0.9741,0.9738,0.9734,0.9734,0.9734,0.9735,0.9736,0.9735,0.9727,0.9734,0.9734,0.9733,0.9733,0.9733,0.9782,0.9782,0.9778,0.9776,0.9773,0.9771,0.977,0.9767,0.9765,0.9761,0.9759,0.9757,0.9753,0.9748,0.9745,0.9744,0.9742,0.9742,0.9742,0.9742,0.9742,0.9737,0.9743,0.9743,0.9743,0.9743,0.9743,0,0.9789,0.9786,0.9785,0.9781,0.9779,0.9776,0.9773,0.9772,0.977,0.9767,0.9765,0.9762,0.9759,0.9755,0.9752,0.9751,0.9749,0.975,0.975,0.975,0.9744,0.9744,0.9752,0.9752,0.9752,0.9752,0.9752,0.9752,0.9793,0.9792,0.9789,0.9787,0.9784,0.9782,0.9781,0.9778,0.9776,0.9773,0.9771,0.9768,0.9764,0.9761,0.9758,0.9757,0.9756,0.9758,0.9756,0.9751,0.975,0.9749,0.9749,0.9758,0.9758,0.9761,0.9761,0.9761]}]]